Flag for Brazil Weather past 2 weeks in Santos, São Paulo, Brazil

Now
63 °F

Partly sunny.


Feels Like: 63 °F
Forecast: 69 / 81 °F
Wind: 7 mph from Northeast

Location: Sao Paulo Airport

Current Time: Apr 27, 2015 at 9:21:31 AM

Latest Report: Apr 27, 2015 at 8:00 AM


Visibility: N/A

Pressure: 30.18 "Hg

Humidity: 83%

Dew point: 57 °F

Location of SantosLocation

Historic Weather in Santos — Graph

°F

Santos temperature yesterday

Maximum temperature yesterday: 72 °F (at 1:00 PM)
Minimum temperature yesterday: 61 °F (at 3:45 AM)
Average temperature yesterday: 65 °F

Past Weeks' High & Low Weather Summary

 TemperatureHumidityPressure
High84 °F (Apr 20, 4:00 PM)94% (Apr 16, 4:00 AM)30.24 "Hg (Apr 16, 4:00 AM)
Low61 °F (Apr 25, 9:00 PM)48% (Apr 24, 4:00 PM)29.92 "Hg (Apr 22, 11:00 PM)
Average70 °F78%30.10 "Hg
* Reported Apr 12 8:00 AM — Apr 27 8:00 AM, Santos, Weather by CustomWeather, © 2015

Note: Actual official high and low records may vary slightly from our data, if they occured in-between our weather recording intervals... More about our weather records

Advertising

Santos weather history for previous 24 hours

 ConditionsComfort  
Time TempWeatherWind HumidityBarometerVisibility
8:00 AM
Mon, Apr 27
63 °FPartly sunny.7 mph83%30.18 "HgN/A
7:00 AM63 °FBroken clouds.3 mph83%30.18 "HgN/A
6:00 AM61 °FScattered clouds.5 mph88%30.15 "HgN/A
5:00 AM63 °FPassing clouds.6 mph83%30.15 "HgN/A
4:00 AM63 °FPassing clouds.6 mph83%30.15 "HgN/A
3:01 AM63 °FOvercast.8 mph83%30.15 "HgN/A
2:00 AM63 °FPassing clouds.7 mph83%30.18 "HgN/A
1:00 AM64 °FPassing clouds.8 mph78%30.18 "HgN/A
12:00 AM64 °FPassing clouds.7 mph78%30.18 "HgN/A
11:00 PM
Sun, Apr 26
64 °FPartly cloudy.9 mph83%30.21 "HgN/A
10:00 PM64 °FPassing clouds.8 mph83%30.21 "Hg4 mi
9:00 PM64 °FPartly cloudy.10 mph83%30.18 "HgN/A
8:00 PM64 °FPartly cloudy.13 mph83%30.18 "HgN/A
7:00 PM64 °FPartly cloudy.12 mph83%30.18 "HgN/A
6:00 PM64 °FPassing clouds.13 mph83%30.18 "Hg5 mi
5:00 PM66 °FPassing clouds.15 mph78%30.18 "HgN/A
4:00 PM70 °FScattered clouds.16 mph69%30.15 "HgN/A
3:00 PM72 °FPartly sunny.14 mph65%30.15 "HgN/A
2:00 PM72 °FPartly sunny.14 mph65%30.15 "HgN/A
1:00 PM72 °FPartly sunny.10 mph61%30.18 "HgN/A
12:00 PM70 °FPartly sunny.9 mph64%30.21 "HgN/A
11:00 AM68 °FPartly sunny.10 mph69%30.24 "HgN/A
10:00 AM66 °FPartly sunny.9 mph73%30.24 "HgN/A
9:00 AM66 °FPartly sunny.10 mph78%30.24 "HgN/A
Weather by CustomWeather, © 2015

See weather overviewHow to use our weather pages